Change the Weather History Date:

Sunday, April 7, 2013

  Actual Average Record
Temperature  
Mean Temperature 22 °F -  
Max Temperature 25 °F 40 °F 51 °F (1940)
Min Temperature 17 °F 27 °F 5 °F (1986)
Degree Days  
Heating Degree Days 43    
Moisture  
Dew Point 8 °F    
Average Humidity 58    
Maximum Humidity 68    
Minimum Humidity 53    
Precipitation  
Precipitation 0.00 in - - ()
Sea Level Pressure  
Sea Level Pressure 29.72 in    
Wind  
Wind Speed 13 mph (SW)    
Max Wind Speed 20 mph    
Max Gust Speed 29 mph    
Visibility 10 miles    
Events      
Averages and records for this station are not official NWS values.
T = Trace of Precipitation, MM = Missing Value Source: NWS Daily Summary

Daily Weather History Graph

Daily Weather History Graph

Search for Another Location

Airport or City:

Trip Planner

Search our weather history database for the weather conditions in past years. The results will help you decide how hot, cold, wet, or windy it might be!

Date:

Astronomy

Apr. 07, 2013 Rise Set
Actual Time 7:12 AM AKDT 9:04 PM AKDT
Civil Twilight 6:28 AM AKDT 9:48 PM AKDT
Nautical Twilight 5:33 AM AKDT 10:44 PM AKDT
Astronomical Twilight 4:25 AM AKDT 11:54 PM AKDT
Moon 6:10 AM AKDT (4/7) 6:20 PM AKDT (4/7)
Length of Visible Light 15h 19m
Length of Day
13h 52m
Waning Crescent, 7% of the Moon is Illuminated
Apr 7
Waning Crescent
Apr 10
New
Apr 18
First Quarter
Apr 25
Full
May 2
Last Quarter

Hourly Weather History & Observations

Time (AKDT) Temp. Windchill Dew Point Humidity Pressure Visibility Wind Dir Wind Speed Gust Speed Precip Events Conditions
12:53 AM 25.0 °F 14.2 °F 12.0 °F 58% 29.60 in 10.0 mi WSW 11.5 mph 21.9 mph N/A   Scattered Clouds
1:53 AM 25.0 °F 11.7 °F 10.9 °F 55% 29.61 in 10.0 mi WSW 17.3 mph 28.8 mph N/A   Clear
2:53 AM 24.1 °F 12.0 °F 10.0 °F 55% 29.63 in 10.0 mi WSW 13.8 mph 18.4 mph N/A   Overcast
3:53 AM 23.0 °F 11.1 °F 10.0 °F 58% 29.64 in 10.0 mi WSW 12.7 mph 20.7 mph N/A   Mostly Cloudy
4:53 AM 21.9 °F 6.9 °F 9.0 °F 58% 29.64 in 10.0 mi SW 19.6 mph 25.3 mph N/A   Mostly Cloudy
5:02 AM 21.2 °F 6.0 °F 8.6 °F 58% 29.63 in 10.0 mi SW 19.6 mph - N/A   Overcast
5:29 AM 21.2 °F 7.3 °F 8.6 °F 58% 29.64 in 10.0 mi WSW 16.1 mph 25.3 mph N/A   Mostly Cloudy
5:53 AM 21.0 °F 7.1 °F 9.0 °F 60% 29.65 in 10.0 mi SW 16.1 mph - N/A   Mostly Cloudy
6:53 AM 21.0 °F 7.1 °F 7.0 °F 55% 29.67 in 10.0 mi WSW 16.1 mph - N/A   Scattered Clouds
7:53 AM 21.0 °F 9.3 °F 9.0 °F 60% 29.68 in 10.0 mi WSW 11.5 mph 20.7 mph N/A   Mostly Cloudy
8:53 AM 19.9 °F 5.7 °F 8.1 °F 60% 29.70 in 10.0 mi WSW 16.1 mph 23.0 mph N/A   Mostly Cloudy
9:53 AM 19.9 °F 5.2 °F 8.1 °F 60% 29.70 in 10.0 mi SW 17.3 mph 26.5 mph N/A   Mostly Cloudy
10:53 AM 19.9 °F 5.2 °F 8.1 °F 60% 29.73 in 10.0 mi WSW 17.3 mph 26.5 mph N/A   Mostly Cloudy
11:53 AM 19.9 °F 4.8 °F 8.1 °F 60% 29.75 in 10.0 mi WSW 18.4 mph 24.2 mph N/A   Mostly Cloudy
12:53 PM 19.9 °F 6.2 °F 8.1 °F 60% 29.77 in 10.0 mi WSW 15.0 mph 25.3 mph N/A   Mostly Cloudy
1:53 PM 21.0 °F 7.6 °F 9.0 °F 60% 29.78 in 10.0 mi WSW 15.0 mph 21.9 mph N/A   Overcast
2:00 PM 21.2 °F 7.8 °F 8.6 °F 58% 29.78 in 10.0 mi WSW 15.0 mph 25.3 mph N/A   Overcast
2:53 PM 21.9 °F 9.2 °F 8.1 °F 55% 29.80 in 10.0 mi WSW 13.8 mph 23.0 mph N/A   Mostly Cloudy
3:53 PM 21.9 °F 9.2 °F 7.0 °F 53% 29.79 in 10.0 mi WSW 13.8 mph - N/A   Overcast
4:53 PM 23.0 °F 13.1 °F 8.1 °F 53% 29.79 in 10.0 mi SW 9.2 mph 20.7 mph N/A   Overcast
5:53 PM 21.9 °F 11.0 °F 7.0 °F 53% 29.78 in 10.0 mi SW 10.4 mph - N/A   Mostly Cloudy
6:53 PM 21.9 °F 13.4 °F 8.1 °F 55% 29.78 in 10.0 mi SSW 6.9 mph - N/A   Mostly Cloudy
7:53 PM 21.9 °F 14.5 °F 7.0 °F 53% 29.78 in 10.0 mi SSW 5.8 mph - N/A   Overcast
8:53 PM 21.9 °F 14.5 °F 7.0 °F 53% 29.78 in 10.0 mi South 5.8 mph - N/A   Mostly Cloudy
9:53 PM 21.9 °F 15.7 °F 8.1 °F 55% 29.78 in 10.0 mi SSE 4.6 mph - N/A   Overcast
10:53 PM 21.0 °F - 8.1 °F 57% 29.78 in 10.0 mi Calm Calm - N/A   Scattered Clouds
11:34 PM 19.4 °F - 8.6 °F 63% 29.78 in 10.0 mi Calm Calm - N/A   Mostly Cloudy
11:53 PM 17.1 °F - 8.1 °F 68% 29.78 in 10.0 mi Calm Calm - N/A   Mostly Cloudy